Houghton, MI

11:36 AM EDT on May 29, 2017 (GMT -0400)
Houghton County Memorial

Weather History for KCMX - October, 2013

Change the Weather History Date:

Friday, October 4, 2013

  Actual Average Record
Temperature  
Mean Temperature 54 °F -  
Max Temperature 57 °F 55 °F 75 °F (2011)
Min Temperature 52 °F 40 °F 26 °F (1965)
Degree Days  
Heating Degree Days 10    
Growing Degree Days 4 (Base 50)    
Moisture  
Dew Point 44 °F    
Average Humidity 72    
Maximum Humidity 89    
Minimum Humidity 53    
Precipitation  
Precipitation 0.02 in - - ()
Sea Level Pressure  
Sea Level Pressure 30.12 in    
Wind  
Wind Speed 9 mph (ENE)    
Max Wind Speed 17 mph    
Max Gust Speed 25 mph    
Visibility 10 miles    
Events Rain    
Averages and records for this station are not official NWS values.
T = Trace of Precipitation, MM = Missing Value Source: NWS Daily Summary

Daily Weather History Graph

Daily Weather History Graph

Search for Another Location

Airport or City:

Trip Planner

Search our weather history database for the weather conditions in past years. The results will help you decide how hot, cold, wet, or windy it might be!

Date:

Astronomy

Oct. 04, 2013 Rise Set
Actual Time 7:57 AM EDT 7:27 PM EDT
Civil Twilight 7:26 AM EDT 7:57 PM EDT
Nautical Twilight 6:51 AM EDT 8:32 PM EDT
Astronomical Twilight 6:15 AM EDT 9:08 PM EDT
Moon 7:33 AM EDT (10/4) 7:06 PM EDT (10/4)
Length of Visible Light 12h 30m
Length of Day
11h 29m
Waning Crescent, 0% of the Moon is Illuminated
Oct 4
Waning Crescent
Oct 4
New
Oct 11
First Quarter
Oct 18
Full
Oct 26
Last Quarter

Hourly Weather History & Observations

Time (EDT) Temp. Dew Point Humidity Pressure Visibility Wind Dir Wind Speed Gust Speed Precip Events Conditions
12:53 AM 53.1 °F 46.9 °F 80% 30.02 in 10.0 mi ENE 8.1 mph - 0.00 in Rain Light Rain
1:53 AM 53.1 °F 46.9 °F 80% 30.04 in 10.0 mi NE 8.1 mph - 0.00 in   Overcast
2:53 AM 54.0 °F 46.0 °F 75% 30.06 in 10.0 mi NE 6.9 mph - 0.00 in Rain Light Rain
3:53 AM 53.1 °F 48.0 °F 83% 30.06 in 10.0 mi NE 8.1 mph - 0.01 in Rain Light Rain
4:53 AM 53.1 °F 48.0 °F 83% 30.06 in 10.0 mi NE 8.1 mph - 0.01 in   Overcast
5:53 AM 52.0 °F 48.9 °F 89% 30.05 in 10.0 mi ENE 6.9 mph - N/A   Overcast
6:53 AM 52.0 °F 48.9 °F 89% 30.07 in 10.0 mi ENE 6.9 mph - N/A   Overcast
7:53 AM 53.1 °F 48.0 °F 83% 30.10 in 10.0 mi NE 6.9 mph - N/A   Overcast
8:53 AM 53.1 °F 46.9 °F 80% 30.12 in 10.0 mi ENE 8.1 mph - N/A   Overcast
9:53 AM 52.0 °F 48.0 °F 86% 30.14 in 9.0 mi ENE 9.2 mph - 0.00 in Rain Light Rain
10:53 AM 52.0 °F 46.9 °F 83% 30.14 in 10.0 mi ENE 12.7 mph 18.4 mph 0.00 in   Overcast
11:53 AM 54.0 °F 46.0 °F 75% 30.15 in 10.0 mi East 10.4 mph 18.4 mph N/A   Overcast
12:53 PM 54.0 °F 45.0 °F 72% 30.15 in 10.0 mi East 15.0 mph 20.7 mph N/A   Overcast
1:53 PM 55.9 °F 44.1 °F 64% 30.16 in 10.0 mi East 12.7 mph 19.6 mph N/A   Overcast
2:53 PM 57.9 °F 41.0 °F 53% 30.14 in 10.0 mi East 17.3 mph 25.3 mph N/A   Overcast
3:53 PM 57.0 °F 39.9 °F 53% 30.15 in 10.0 mi East 10.4 mph 18.4 mph N/A   Overcast
4:53 PM 55.9 °F 39.9 °F 55% 30.14 in 10.0 mi ENE 10.4 mph 18.4 mph N/A   Overcast
5:53 PM 54.0 °F 39.9 °F 59% 30.15 in 10.0 mi ENE 9.2 mph 18.4 mph N/A   Overcast
6:53 PM 53.1 °F 39.9 °F 61% 30.17 in 10.0 mi East 9.2 mph - N/A   Overcast
7:53 PM 52.0 °F 39.9 °F 63% 30.16 in 10.0 mi ENE 8.1 mph - N/A   Overcast
8:53 PM 52.0 °F 39.9 °F 63% 30.16 in 10.0 mi ENE 8.1 mph - N/A   Overcast
9:53 PM 52.0 °F 41.0 °F 66% 30.17 in 10.0 mi East 8.1 mph - N/A   Overcast
10:53 PM 52.0 °F 42.1 °F 69% 30.17 in 10.0 mi East 8.1 mph - N/A   Overcast
11:53 PM 52.0 °F 42.1 °F 69% 30.17 in 10.0 mi ENE 11.5 mph 19.6 mph N/A   Overcast